| time (UTC) | temp F | wind direction | speed MPH | gust MPH | rain 1hr in | rain 24hr in | rain mn in | humidity % | barometer mb |
| 20260506073056 | 62 | 354 | 2.0 | 5.0 | 0.00 | 0.00 | 0.00 | 56 | 1010.1 |
| 20260506071556 | 62 | 0 | 0.0 | 1.0 | 0.00 | 0.00 | 0.00 | 55 | 1010.1 |
| 20260506070126 | 63 | 58 | 0.0 | 4.0 | 0.00 | 0.00 | 0.00 | 55 | 1010.0 |
| 20260506061553 | 65 | 25 | 0.0 | 3.0 | 0.00 | 0.00 | 0.00 | 53 | 1010.0 |
| 20260506050109 | 68 | 19 | 5.0 | 10.0 | 0.00 | 0.00 | 0.00 | 49 | 1009.7 |
| 20260506044556 | 69 | 29 | 4.0 | 8.0 | 0.00 | 0.00 | 0.00 | 49 | 1009.5 |
| 20260506043058 | 70 | 69 | 3.0 | 7.0 | 0.00 | 0.00 | 0.00 | 48 | 1009.4 |
| 20260506041601 | 71 | 37 | 5.0 | 9.0 | 0.00 | 0.00 | 0.00 | 47 | 1009.5 |
| 20260506040059 | 72 | 8 | 7.0 | 9.0 | 0.00 | 0.00 | 0.00 | 46 | 1009.4 |
| 20260506034557 | 72 | 30 | 6.0 | 12.0 | 0.00 | 0.00 | 0.00 | 45 | 1009.1 |
| 20260506033056 | 74 | 26 | 5.0 | 9.0 | 0.00 | 0.00 | 0.00 | 45 | 1009.0 |
| 20260506031555 | 74 | 17 | 7.0 | 12.0 | 0.00 | 0.00 | 0.00 | 44 | 1008.7 |
| 20260506030053 | 75 | 10 | 6.0 | 11.0 | 0.00 | 0.00 | 0.00 | 43 | 1008.5 |
| 20260506024600 | 76 | 18 | 5.0 | 12.0 | 0.00 | 0.00 | 0.00 | 42 | 1008.2 |
| 20260506023052 | 75 | 288 | 0.0 | 1.0 | 0.00 | 0.00 | 0.00 | 40 | 1007.6 |
| 20260506021554 | 76 | 287 | 0.0 | 1.0 | 0.00 | 0.00 | 0.00 | 39 | 1007.3 |
| 20260506020106 | 76 | 288 | 0.0 | 1.0 | 0.00 | 0.00 | 0.00 | 38 | 1007.2 |
| 20260506014608 | 77 | 0 | 0.0 | 0.0 | 0.00 | 0.00 | 0.00 | 37 | 1007.0 |
| 20260506013055 | 79 | 0 | 0.0 | 0.0 | 0.00 | 0.00 | 0.00 | 36 | 1006.7 |
| 20260506011614 | 80 | 0 | 0.0 | 0.0 | 0.00 | 0.00 | 0.00 | 36 | 1006.3 |
| 20260506010053 | 82 | 0 | 0.0 | 0.0 | 0.00 | 0.00 | 0.00 | 35 | 1006.1 |
| 20260506004603 | 85 | 0 | 0.0 | 0.0 | 0.00 | 0.00 | 0.00 | 35 | 1006.0 |
| 20260506003053 | 86 | 0 | 0.0 | 0.0 | 0.00 | 0.00 | 0.00 | 35 | 1005.8 |
| 20260506001602 | 89 | 284 | 0.0 | 1.0 | 0.00 | 0.00 | 0.00 | 35 | 1006.0 |
| 20260506000118 | 90 | 0 | 0.0 | 0.0 | 0.00 | 0.00 | 0.00 | 35 | 1005.9 |
| 20260505234555 | 93 | 284 | 0.0 | 1.0 | 0.00 | 0.00 | 0.00 | 36 | 1005.9 |
| 20260505233100 | 93 | 0 | 0.0 | 1.0 | 0.00 | 0.00 | 0.00 | 37 | 1005.8 |
| 20260505231604 | 92 | 284 | 0.0 | 3.0 | 0.00 | 0.00 | 0.00 | 37 | 1006.1 |
| 20260505230105 | 93 | 0 | 0.0 | 2.0 | 0.00 | 0.00 | 0.00 | 38 | 1006.0 |
| 20260505224557 | 91 | 286 | 0.0 | 7.0 | 0.00 | 0.00 | 0.00 | 39 | 1005.9 |
| 20260505223103 | 94 | 304 | 0.0 | 2.0 | 0.00 | 0.00 | 0.00 | 40 | 1005.8 |
| 20260505221601 | 93 | 282 | 1.0 | 3.0 | 0.00 | 0.00 | 0.00 | 40 | 1005.9 |
| 20260505220100 | 93 | 2 | 1.0 | 3.0 | 0.00 | 0.00 | 0.00 | 41 | 1006.0 |
| 20260505214557 | 93 | 286 | 2.0 | 5.0 | 0.00 | 0.00 | 0.00 | 42 | 1006.2 |
| 20260505213059 | 94 | 267 | 0.0 | 3.0 | 0.00 | 0.00 | 0.00 | 44 | 1006.0 |
| 20260505211554 | 94 | 276 | 1.0 | 4.0 | 0.00 | 0.00 | 0.00 | 45 | 1006.1 |
| 20260505210057 | 92 | 240 | 0.0 | 5.0 | 0.00 | 0.00 | 0.00 | 46 | 1006.5 |
| 20260505204600 | 94 | 317 | 1.0 | 3.0 | 0.00 | 0.00 | 0.00 | 48 | 1006.5 |
| 20260505203101 | 93 | 297 | 1.0 | 4.0 | 0.00 | 0.00 | 0.00 | 49 | 1006.7 |
| 20260505201553 | 94 | 292 | 1.0 | 4.0 | 0.00 | 0.00 | 0.00 | 51 | 1006.8 |
| 20260505200051 | 94 | 305 | 1.0 | 4.0 | 0.00 | 0.00 | 0.00 | 53 | 1006.9 |
| 20260505194611 | 94 | 0 | 0.0 | 6.0 | 0.00 | 0.00 | 0.00 | 55 | 1007.1 |
| 20260505193054 | 92 | 15 | 1.0 | 3.0 | 0.00 | 0.00 | 0.00 | 57 | 1007.2 |
| 20260505191606 | 92 | 310 | 1.0 | 5.0 | 0.00 | 0.00 | 0.00 | 59 | 1007.3 |
| 20260505190056 | 93 | 231 | 0.0 | 4.0 | 0.00 | 0.00 | 0.00 | 61 | 1007.6 |
| 20260505184554 | 94 | 298 | 0.0 | 3.0 | 0.00 | 0.00 | 0.00 | 64 | 1007.8 |
| 20260505183055 | 92 | 267 | 0.0 | 3.0 | 0.00 | 0.00 | 0.00 | 65 | 1008.0 |
| 20260505181556 | 93 | 0 | 0.0 | 4.0 | 0.00 | 0.00 | 0.00 | 67 | 1008.1 |
| 20260505180058 | 91 | 268 | 0.0 | 3.0 | 0.00 | 0.00 | 0.00 | 68 | 1008.3 |
| 20260505174555 | 91 | 0 | 0.0 | 0.0 | 0.00 | 0.00 | 0.00 | 70 | 1008.5 |
| 20260505173112 | 88 | 232 | 1.0 | 4.0 | 0.00 | 0.00 | 0.00 | 71 | 1008.5 |
| 20260505171613 | 87 | 217 | 0.0 | 5.0 | 0.00 | 0.00 | 0.00 | 72 | 1008.6 |
| 20260505170055 | 86 | 0 | 0.0 | 3.0 | 0.00 | 0.00 | 0.00 | 73 | 1008.8 |
| 20260505164601 | 85 | 141 | 3.0 | 10.0 | 0.00 | 0.00 | 0.00 | 74 | 1008.7 |
| 20260505163057 | 86 | 207 | 0.0 | 4.0 | 0.00 | 0.00 | 0.00 | 75 | 1008.8 |
| 20260505161557 | 83 | 210 | 0.0 | 6.0 | 0.00 | 0.00 | 0.00 | 75 | 1008.6 |
| 20260505153057 | 83 | 202 | 1.0 | 7.0 | 0.00 | 0.00 | 0.00 | 77 | 1008.7 |
| 20260505151559 | 82 | 0 | 0.0 | 1.0 | 0.00 | 0.00 | 0.00 | 77 | 1008.6 |
| 20260505150116 | 81 | 0 | 0.0 | 3.0 | 0.00 | 0.00 | 0.00 | 78 | 1008.6 |
| 20260505124558 | 69 | 0 | 0.0 | 2.0 | 0.00 | 0.00 | 0.00 | 74 | 1007.6 |
| 20260505123101 | 68 | 0 | 0.0 | 1.0 | 0.00 | 0.00 | 0.00 | 74 | 1007.4 |
| 20260505121622 | 68 | 0 | 0.0 | 2.0 | 0.00 | 0.00 | 0.00 | 73 | 1007.3 |
| 20260505120054 | 67 | 231 | 0.0 | 2.0 | 0.00 | 0.00 | 0.00 | 73 | 1007.0 |
| 20260505114552 | 66 | 0 | 0.0 | 1.0 | 0.00 | 0.00 | 0.00 | 72 | 1007.1 |
| 20260505113056 | 66 | 0 | 0.0 | 0.0 | 0.00 | 0.00 | 0.00 | 72 | 1006.9 |
| 20260505111557 | 67 | 0 | 0.0 | 1.0 | 0.00 | 0.00 | 0.00 | 72 | 1006.8 |
| 20260505101557 | 68 | 0 | 0.0 | 1.0 | 0.00 | 0.00 | 0.00 | 70 | 1006.6 |
| 20260505100135 | 68 | 207 | 0.0 | 1.0 | 0.00 | 0.00 | 0.00 | 69 | 1006.6 |
| 20260505094555 | 68 | 0 | 0.0 | 2.0 | 0.00 | 0.00 | 0.00 | 69 | 1006.6 |
| 20260505093056 | 68 | 0 | 0.0 | 2.0 | 0.00 | 0.00 | 0.00 | 69 | 1006.9 |
| 20260505091617 | 68 | 272 | 0.0 | 2.0 | 0.00 | 0.00 | 0.00 | 68 | 1006.9 |
| 20260505090101 | 69 | 0 | 0.0 | 4.0 | 0.00 | 0.00 | 0.00 | 68 | 1006.9 |
| 20260505084551 | 69 | 191 | 1.0 | 10.0 | 0.00 | 0.00 | 0.00 | 67 | 1006.7 |
| 20260505083056 | 70 | 181 | 3.0 | 10.0 | 0.00 | 0.00 | 0.00 | 67 | 1006.6 |
| 20260505081555 | 70 | 177 | 2.0 | 11.0 | 0.00 | 0.00 | 0.00 | 67 | 1006.7 |